[[{"header":{"parameterUnit":"m.s-1","parameterCategory":1,"la1":30.2991,"la2":30.254,"lo1":-89.0895,"lo2":-89.0444,"dx":0.0017,"dy":0.0017,"nx":28,"ny":28,"refTime":"2023-01-27T15:00:00:Z","depth":0,"parameterNumber":2,"parameterNumberName":"U-component_of_WINDS"},"data":[0,0,0,0,0,0,0,0,0,0,0,0,0,0,0,0,0,0,0,0,0,0,0,0,0,0,0,0,0,0,0,0,0,0,0,0,0,0,0,0,0,0,0,0,0,0,0,0,0,0,0,0,0,0,0,0,0,0,-4.1173,-4.1174,0,-4.129,-4.1291,-4.1293,-4.128,-4.1278,-4.1276,-4.1275,-4.1393,-4.1397,-4.1402,0,0,0,0,0,0,0,0,0,0,0,0,0,-4.0938,-4.0943,-4.1173,-4.1174,-4.1176,-4.129,-4.1291,-4.1293,-4.128,-4.1278,-4.1276,-4.1274,-4.1391,-4.1397,-4.1403,0,0,0,0,0,0,0,0,0,0,0,0,0,-4.1046,-4.0944,-4.1173,-4.1183,-4.1186,-4.1289,-4.1291,-4.1293,-4.1281,-4.1278,-4.1275,-4.1273,-4.1389,-4.1396,-4.1403,-4.1504,0,0,-4.1426,-4.1429,0,0,0,0,0,0,0,0,-4.104,-4.1055,-4.118,-4.1183,-4.1185,-4.1268,-4.1252,-4.1364,-4.1281,-4.1245,-4.1275,-4.1271,-4.1353,-4.1363,-4.1391,-4.1509,-4.1514,-4.1426,-4.1431,-4.1434,-4.1436,0,0,0,0,0,0,0,-4.1032,-4.105,-4.1219,-4.1182,-4.1185,-4.1182,-4.1194,-4.1273,-4.1313,-4.1248,-4.1247,-4.1261,-4.1354,-4.1384,-4.1394,-4.1516,-4.1426,-4.1433,-4.1437,-4.144,-4.1722,-4.1725,0,0,0,0,0,0,-4.1023,-4.1043,-4.1215,-4.1223,-4.1104,-4.1189,-4.1202,-4.1244,-4.1312,-4.132,-4.1263,-4.126,-4.1373,-4.1385,-4.1398,-4.1519,-4.1434,-4.1441,-4.1445,-4.1719,-4.1722,-4.1726,0,0,0,0,0,0,-4.1018,-4.1038,-4.1211,-4.1133,-4.1155,-4.1196,-4.1242,-4.1248,-4.1278,-4.1324,-4.1331,-4.1287,-4.1371,-4.1388,-4.1477,-4.1523,-4.1444,-4.1451,-4.1715,-4.172,-4.1724,-4.1762,0,0,0,0,0,0,-4.1011,-4.1036,-4.1075,-4.1134,-4.1159,-4.1289,-4.1245,-4.1252,-4.1291,-4.1287,-4.1348,-4.1355,-4.137,-4.1467,-4.1485,-4.1531,-4.1456,-4.1711,-4.1717,-4.1722,-4.1757,-4.1767,-4.1776,0,0,0,0,0,-4.1003,-4.1081,-4.1077,-4.1098,-4.1208,-4.1291,-4.1305,-4.1322,-4.1294,-4.1333,-4.1363,-4.1353,-4.1515,-4.1476,-4.1496,-4.1546,-4.1708,-4.1715,-4.1722,-4.1752,-4.1765,-4.1776,0,0,0,0,0,0,-4.1025,-4.1089,-4.1085,-4.1185,-4.1233,-4.1289,-4.1338,-4.1335,-4.1392,-4.1386,-4.1404,-4.1418,-4.1508,-4.1536,-4.1491,-4.1646,-4.1608,-4.1619,-4.1624,-4.1637,-4.1646,-4.1636,-4.1462,0,0,0,0,0,-4.1042,-4.1105,-4.1157,-4.124,-4.1264,-4.1297,-4.1334,-4.1343,-4.1393,-4.1413,-4.1449,-4.1498,-4.156,-4.16,-4.166,-4.1762,-4.1774,-4.1806,-4.1815,-4.1823,-4.1832,-4.1887,-4.1901,-4.1749,-4.1749,-4.1748,0,0,-4.1077,-4.1119,-4.1158,-4.1245,-4.1283,-4.1347,-4.1314,-4.1383,-4.1431,-4.1423,-4.151,-4.1539,-4.1594,-4.169,-4.1734,-4.1716,-4.1877,-4.1832,-4.1838,-4.1843,-4.1896,-4.191,-4.1923,-4.1753,-4.1752,-4.1752,0,0,-4.1172,-4.1212,-4.1284,-4.1324,-4.1382,-4.1404,-4.1422,-4.1479,-4.1498,-4.1585,-4.1581,-4.1638,-4.1744,-4.1784,-4.1818,-4.193,-4.1923,-4.1949,-4.1999,-4.2053,-4.2065,-4.2075,-4.2114,-4.2127,-4.1958,-4.1958,-4.1959,0,-4.1208,-4.1304,-4.1322,-4.1392,-4.143,-4.1428,-4.1502,-4.1539,-4.1614,-4.164,-4.1619,-4.1753,-4.179,-4.1895,-4.1922,-4.1951,-4.197,-4.1941,-4.2062,-4.2072,-4.2083,-4.2119,-4.2134,-4.1961,-4.1961,-4.1961,-4.196,0,-4.1345,-4.1412,-4.1464,-4.1536,-4.1581,-4.1652,-4.168,-4.1723,-4.1729,-4.1753,-4.1842,-4.1887,-4.1955,-4.1981,-4.1987,-4.2087,-4.2074,-4.2058,-4.2019,-4.21,-4.2134,-4.2149,-4.1965,-4.1964,-4.1963,-4.1963,0,0,-4.1456,-4.1538,-4.1557,-4.159,-4.1655,-4.1707,-4.1778,-4.1846,-4.1881,-4.1934,-4.1993,-4.2084,-4.2069,-4.2108,-4.2119,-4.2166,-4.225,-4.2144,-4.2145,-4.216,-4.2361,-4.2372,-4.2388,-4.2247,-4.225,-4.2252,-4.2356,0,-4.1556,-4.1683,-4.1701,-4.1812,-4.1874,-4.1873,-4.1936,-4.1982,-4.2007,-4.2062,-4.209,-4.2153,-4.213,-4.2153,-4.22,-4.223,-4.229,-4.2223,-4.2301,-4.2303,-4.2284,-4.2406,-4.2417,-4.2513,-4.237,-4.2372,-4.2374,0,-4.169,-4.1746,-4.1863,-4.192,-4.1947,-4.2002,-4.2065,-4.2119,-4.2172,-4.2186,-4.223,-4.2235,-4.2309,-4.227,-4.237,-4.2324,-4.2358,-4.2377,-4.2382,-4.2387,-4.2342,-4.2413,-4.2545,-4.2558,-4.2396,-4.2394,-4.2393,0,-4.1757,-4.1862,-4.1946,-4.1974,-4.2043,-4.2082,-4.2112,-4.2162,-4.2202,-4.2257,-4.2283,-4.2346,-4.238,-4.2429,-4.2451,-4.242,-4.255,-4.2513,-4.2563,-4.2563,-4.2588,-4.2586,-4.2724,-4.2614,-4.2614,-4.2613,-4.2613,0,-4.1866,-4.1937,-4.1977,-4.2028,-4.2108,-4.2129,-4.2207,-4.2236,-4.2281,-4.2338,-4.2342,-4.2395,-4.2422,-4.2478,-4.2496,-4.2576,-4.2592,-4.2605,-4.2609,-4.2604,-4.2602,-4.2624,-4.2617,-4.2617,-4.2616,-4.2616,-4.2615,0,-4.1953,-4.1982,-4.2073,-4.2131,-4.2148,-4.2204,-4.2253,-4.2303,-4.2328,-4.2399,-4.2417,-4.2456,-4.2523,-4.2551,-4.2633,-4.2645,-4.2737,-4.2736,-4.2719,-4.2719,-4.2767,-4.2762,-4.2923,-4.2945,-4.2822,-4.2823,-4.2824,0,-4.2019,-4.2074,-4.2138,-4.2177,-4.2208,-4.227,-4.231,-4.2334,-4.2376,-4.244,-4.2482,-4.2549,-4.2604,-4.2712,-4.2747,-4.281,-4.281,-4.2862,-4.2819,-4.2812,-4.2808,-4.2803,-4.2808,-4.2869,-4.287,-4.2871,-4.2872,0,-4.2133,-4.2145,-4.2203,-4.2267,-4.2315,-4.2366,-4.2416,-4.2447,-4.2479,-4.2525,-4.2594,-4.2637,-4.2722,-4.2788,-4.2853,-4.2884,-4.2883,-4.2886,-4.29,-4.2894,-4.2881,-4.2887,-4.2738,-4.2881,-4.288,-4.288,-4.2879,-4.2879,-4.2211,-4.2259,-4.2312,-4.2376,-4.2417,-4.2463,-4.2512,-4.2544,-4.2602,-4.2673,-4.2684,-4.2757,-4.2809,-4.2896,-4.293,-4.2987,-4.2974,-4.2995,-4.3001,-4.3005,-4.3007,-4.2874,-4.3,-4.3,-4.2999,-4.2999,-4.2999,0,-4.2323,-4.2357,-4.2417,-4.2486,-4.2537,-4.2534,-4.2589,-4.2631,-4.2696,-4.2745,-4.2799,-4.2878,-4.2943,-4.2984,-4.3049,-4.3087,-4.3088,-4.3103,-4.3099,-4.3106,-4.3016,-4.2996,-4.3101,-4.3101,-4.3101,-4.3101,-4.3101,-4.3101,-4.2387,-4.2469,-4.2487,-4.2589,-4.2622,-4.2695,-4.2726,-4.2769,-4.2808,-4.2896,-4.295,-4.2977,-4.3023,-4.3091,-4.315,-4.3161,-4.3183,-4.3199,-4.3208,-4.3123,-4.3112,-4.3102,-4.3083,-4.3204,-4.3205,-4.3293,-4.3294,-4.3294]},{"header":{"parameterUnit":"m.s-1","parameterCategory":1,"la1":30.2991,"la2":30.254,"lo1":-89.0895,"lo2":-89.0444,"dx":0.0017,"dy":0.0017,"nx":28,"ny":28,"refTime":"2023-01-27T15:00:00:Z","depth":0,"parameterNumber":3,"parameterNumberName":"V-component_of_WINDS"},"data":[0,0,0,0,0,0,0,0,0,0,0,0,0,0,0,0,0,0,0,0,0,0,0,0,0,0,0,0,0,0,0,0,0,0,0,0,0,0,0,0,0,0,0,0,0,0,0,0,0,0,0,0,0,0,0,0,0,0,1.6124,1.6125,0,1.6216,1.6217,1.6218,1.6248,1.6247,1.6247,1.6246,1.6341,1.6344,1.6347,0,0,0,0,0,0,0,0,0,0,0,0,0,1.5974,1.5976,1.6123,1.6125,1.6126,1.6216,1.6217,1.6219,1.6248,1.6247,1.6247,1.6246,1.634,1.6343,1.6347,0,0,0,0,0,0,0,0,0,0,0,0,0,1.605,1.5977,1.6123,1.6151,1.6155,1.6216,1.6217,1.6219,1.6248,1.6247,1.6247,1.6246,1.6339,1.6343,1.6347,1.6387,0,0,1.6361,1.6363,0,0,0,0,0,0,0,0,1.6045,1.6055,1.6146,1.6149,1.6153,1.622,1.6199,1.6275,1.6248,1.6212,1.6246,1.6246,1.6301,1.6308,1.6327,1.6392,1.6396,1.6361,1.6364,1.6366,1.6367,0,0,0,0,0,0,0,1.604,1.6051,1.616,1.6147,1.6152,1.616,1.617,1.6214,1.6259,1.6216,1.6218,1.6228,1.6303,1.6323,1.633,1.6397,1.6361,1.6365,1.6368,1.6369,1.6501,1.6502,0,0,0,0,0,0,1.603,1.6047,1.6157,1.6163,1.6097,1.6163,1.6174,1.6199,1.6259,1.6267,1.6229,1.6229,1.6316,1.6325,1.6333,1.6386,1.6366,1.637,1.6372,1.6501,1.6502,1.6503,0,0,0,0,0,0,1.6027,1.6039,1.6153,1.6106,1.6121,1.6166,1.6194,1.6201,1.6221,1.6269,1.6277,1.6241,1.6316,1.6327,1.6374,1.6389,1.6372,1.6376,1.65,1.6501,1.6502,1.649,0,0,0,0,0,0,1.6022,1.6038,1.6053,1.6106,1.6123,1.6192,1.6195,1.6204,1.6229,1.623,1.6282,1.629,1.6316,1.6367,1.6378,1.6395,1.6379,1.6498,1.65,1.6502,1.6489,1.649,1.6492,0,0,0,0,0,1.6017,1.6045,1.6054,1.6067,1.6143,1.6193,1.6203,1.6232,1.623,1.6246,1.6277,1.6289,1.6386,1.6372,1.6385,1.6403,1.6498,1.65,1.6502,1.6488,1.649,1.6492,0,0,0,0,0,0,1.5993,1.6053,1.6063,1.6109,1.6146,1.6198,1.6219,1.6233,1.6271,1.6271,1.6305,1.6317,1.6362,1.6387,1.6371,1.6446,1.6442,1.6447,1.6428,1.643,1.6431,1.6425,1.6383,0,0,0,0,0,1.5993,1.6028,1.6079,1.6115,1.6133,1.6173,1.6196,1.6215,1.6255,1.627,1.6305,1.6343,1.6382,1.6407,1.6446,1.6493,1.6505,1.6511,1.6513,1.6514,1.6517,1.6546,1.655,1.6509,1.6509,1.6509,0,0,1.5993,1.6031,1.6051,1.6111,1.6142,1.6179,1.6186,1.6224,1.6252,1.6276,1.6324,1.635,1.6395,1.6443,1.6465,1.6465,1.6532,1.6516,1.6516,1.652,1.6549,1.6553,1.6556,1.6511,1.651,1.651,0,0,1.6014,1.6045,1.6079,1.6111,1.6158,1.6184,1.6193,1.6243,1.6262,1.631,1.633,1.6364,1.643,1.6462,1.6487,1.6522,1.6535,1.6533,1.6541,1.6569,1.6572,1.6575,1.6589,1.6594,1.6537,1.6537,1.6537,0,1.6009,1.6065,1.6095,1.6134,1.616,1.6185,1.6221,1.625,1.6307,1.6325,1.6324,1.6409,1.6441,1.6498,1.6506,1.6525,1.6537,1.6528,1.6569,1.6572,1.6576,1.659,1.6595,1.6537,1.6537,1.6537,1.6537,0,1.6057,1.6096,1.6118,1.6174,1.6203,1.624,1.6277,1.6303,1.632,1.6347,1.6397,1.6436,1.6485,1.6499,1.6516,1.6559,1.6558,1.6562,1.656,1.6579,1.6593,1.6598,1.6536,1.6536,1.6536,1.6536,0,0,1.6064,1.6138,1.6146,1.6172,1.6227,1.6258,1.6296,1.6344,1.6367,1.6405,1.644,1.6497,1.6502,1.653,1.6551,1.6575,1.6603,1.6577,1.6579,1.6582,1.6655,1.6653,1.6658,1.6612,1.6613,1.6614,1.6652,0,1.6093,1.6163,1.6193,1.6249,1.6287,1.6312,1.6346,1.6383,1.641,1.6446,1.6476,1.6516,1.6519,1.6537,1.6562,1.6594,1.6618,1.6592,1.6645,1.6647,1.6634,1.6665,1.6662,1.6697,1.6658,1.6659,1.6659,0,1.6135,1.6176,1.6236,1.6289,1.6306,1.6336,1.6383,1.6417,1.6461,1.6479,1.6512,1.6531,1.6574,1.6568,1.6629,1.661,1.6634,1.6653,1.6655,1.6662,1.6655,1.6675,1.6708,1.6714,1.6668,1.6667,1.6667,0,1.6136,1.6206,1.6252,1.6274,1.6335,1.6357,1.6383,1.6427,1.6454,1.6496,1.6514,1.656,1.6585,1.662,1.6652,1.6645,1.671,1.6707,1.6728,1.6727,1.6741,1.674,1.678,1.6754,1.6754,1.6754,1.6753,0,1.6166,1.6202,1.6254,1.6282,1.6325,1.6359,1.64,1.6429,1.6468,1.6503,1.6526,1.6559,1.6599,1.6637,1.6662,1.671,1.6721,1.6737,1.6744,1.6736,1.6734,1.6753,1.6752,1.6755,1.6755,1.6754,1.6754,0,1.6174,1.621,1.6262,1.6317,1.6332,1.6361,1.6408,1.6438,1.6466,1.6511,1.6523,1.6568,1.6614,1.665,1.6709,1.6727,1.6777,1.6784,1.6763,1.6767,1.6786,1.6785,1.6841,1.6851,1.6816,1.6817,1.6817,0,1.6191,1.6221,1.6279,1.6305,1.6332,1.6372,1.6401,1.6436,1.6465,1.6519,1.6542,1.659,1.6631,1.6704,1.6742,1.6788,1.6797,1.6814,1.6804,1.6796,1.68,1.6798,1.6802,1.6815,1.6815,1.6815,1.6816,0,1.6218,1.6235,1.6276,1.6323,1.6357,1.6396,1.6436,1.6455,1.6498,1.653,1.6578,1.6609,1.6672,1.672,1.6771,1.6799,1.6815,1.6818,1.6826,1.6819,1.6807,1.6816,1.6768,1.6817,1.6817,1.6817,1.6817,1.6817,1.6233,1.6261,1.6307,1.6353,1.6386,1.6423,1.6454,1.6487,1.6528,1.6582,1.66,1.665,1.6696,1.6766,1.6795,1.6835,1.6836,1.6846,1.6849,1.6852,1.6852,1.6799,1.6844,1.6844,1.6844,1.6844,1.6844,0,1.6263,1.6294,1.6336,1.6391,1.6427,1.6439,1.6484,1.6514,1.6558,1.6599,1.6639,1.6696,1.6743,1.6785,1.6835,1.6859,1.6868,1.6871,1.6871,1.6877,1.6848,1.6837,1.6864,1.6864,1.6864,1.6864,1.6864,1.6864,1.6283,1.6332,1.6354,1.6421,1.6452,1.6502,1.6527,1.6562,1.6595,1.6658,1.6697,1.6725,1.6767,1.6821,1.6865,1.6877,1.6895,1.6896,1.691,1.6881,1.6879,1.6877,1.6867,1.6899,1.69,1.6936,1.6937,1.6937]}]]